Simultaneous Nadir Overpasses (SNOs) Predictions

Prediction of SNOs between METOP-A and TERRA Satellite Orbit:

Table of predicted SNOs for the next 14.0 days since TLE Epoch: 12/28/2012
Index Date (METOP-A) Time (METOP-A) Lat,Lon (METOP-A) SZA (METOP-A ) Date (TERRA) Time (TERRA) Lat,Lon (TERRA) SZA (TERRA ) Distance(km) Time Diff (sec)
1 12/28/2012 21:48:32 81.34, -99.14 107.21 12/28/2012 21:49:08 81.34, -99.29 107.20 2.64 36
2 12/28/2012 22:39:11 -81.35, 68.73 72.74 12/28/2012 22:38:34 -81.35, 68.65 72.76 1.58 37
3 12/31/2012 17:22:53 81.34, -32.64 106.99 12/31/2012 17:23:25 81.35, -32.70 106.99 1.12 32
4 12/31/2012 18:13:33 -81.35, 134.86 73.00 12/31/2012 18:12:52 -81.34, 134.88 73.02 0.39 41
5 01/03/2013 12:57:14 81.34, 33.71 106.69 01/03/2013 12:57:42 81.35, 33.82 106.72 2.08 28
6 01/03/2013 13:47:54 -81.35,-158.77 73.30 01/03/2013 13:47:09 -81.35,-158.57 73.29 3.27 45
7 01/06/2013 08:31:34 81.34, 99.92 106.32 01/06/2013 08:31:59 81.33, 99.90 106.32 0.88 25
8 01/06/2013 09:22:13 -81.35, -92.14 73.62 01/06/2013 09:21:25 -81.35, -92.09 73.63 1.00 48
9 01/09/2013 04:05:53 81.35, 166.77 105.97 01/09/2013 04:06:15 81.35, 166.68 105.97 1.65 22




NCC Satellite Simultaneous Nadir Overpasses (SNOs) Prediction Service
